Location: Coffee Creek Observatory
(38.8077°N, 94.7179°W)
Time: 13:04:00
(UTC-05:00)

Amateur Radio Satellites - All Passes

Search period start: 29 August 2014 12:34
Search period end: 30 August 2014 12:34
Location: Coffee Creek Observatory, 38.8077°N, 94.7179°W

Satellite Date Start Highest point End Downlink Frequencies (MHz)
Time Altitude Azimuth
Oscar 11 29 Aug 12:38:57 12:39:59 11° 297° (WNW) 12:41:00 145.825 FM, Beacon 2401.500 USB
FUNcube-1 29 Aug 12:58:43 13:01:36 17° 294° (WNW) 13:04:31 145.950 - 145.970 MHz USB
MaSat-1 29 Aug 13:08:28 13:11:59 20° 102° (ESE) 13:15:41 437.345 MHz
RS-15 29 Aug 13:20:21 13:26:41 16° 357° (N) 13:33:04 29.354 - 29.394 USB, Beacon 29.352 USB
Oscar 19 29 Aug 13:23:23 13:28:00 34° 69° (ENE) 13:32:38 437.125 CW, 437.150 USB
ISS 29 Aug 13:37:06 13:38:58 14° 342° (NNW) 13:40:50 145.800 FM
PANSAT 29 Aug 13:47:18 13:49:39 16° 172° (S) 13:52:00 not established
JAS-1B 29 Aug 13:48:07 13:56:59 41° 66° (ENE) 14:05:04 435.800 - 435.900 CW/SSB
ITAMSAT 1 29 Aug 13:52:39 13:57:02 29° 67° (ENE) 14:01:25 435.822 SSB
Oscar 16 29 Aug 13:57:22 14:02:30 76° 75° (ENE) 14:07:41 437.025 USB, Beacon 2401.1428
TMSAT-1 29 Aug 13:58:21 13:58:44 10° 59° (ENE) 13:59:07 436.925 FM
AO-Echo 29 Aug 14:02:33 14:07:12 38° 71° (ENE) 14:11:44 ?
Uribyol 2 29 Aug 14:02:36 14:07:19 38° 69° (ENE) 14:12:03 436.500 FM
SO-50 29 Aug 14:07:44 14:12:26 55° 243° (WSW) 14:17:09 436.795 FM
AO-27 29 Aug 14:20:31 14:25:32 54° 72° (ENE) 14:30:35 436.795 MHz FM
UOSAT-12 29 Aug 14:35:47 14:39:50 27° 49° (NE) 14:43:48 437.025 FM, 437.400 FM
Gurwin Techsat 1B 29 Aug 14:40:34 14:45:23 36° 69° (ENE) 14:50:12 435.225 FM
MaSat-1 29 Aug 14:43:56 14:48:37 46° 300° (WNW) 14:53:36 437.345 MHz
Oscar 19 29 Aug 15:03:02 15:07:20 27° 265° (W) 15:11:42 437.125 CW, 437.150 USB
PANSAT 29 Aug 15:26:39 15:29:12 17° 185° (S) 15:31:44 not established
ITAMSAT 1 29 Aug 15:31:49 15:36:24 32° 263° (W) 15:41:02 435.822 SSB
TMSAT-1 29 Aug 15:32:30 15:37:46 82° 75° (ENE) 15:43:05 436.925 FM
RS-15 29 Aug 15:35:29 15:44:32 28° 33° (NNE) 15:53:46 29.354 - 29.394 USB, Beacon 29.352 USB
JAS-1B 29 Aug 15:37:37 15:47:09 53° 261° (W) 15:55:59 435.800 - 435.900 CW/SSB
Oscar 16 29 Aug 15:40:43 15:42:24 11° 270° (W) 15:44:04 437.025 USB, Beacon 2401.1428
AO-Echo 29 Aug 15:42:05 15:46:02 23° 265° (W) 15:49:55 ?
Uribyol 2 29 Aug 15:42:44 15:46:51 24° 265° (W) 15:51:00 436.500 FM
AO-7 29 Aug 15:46:34 15:54:10 41° 62° (ENE) 16:01:44 29.400 - 29.500 MHz
Oscar 10/S400 29 Aug 15:47:41 16:01:53 19° 147° (SSE) 16:14:13 145.825 - 145.975 CW/USB, Beacon 145.810 USB
AO-27 29 Aug 16:02:04 16:05:21 17° 268° (W) 16:08:39 436.795 MHz FM
UOSAT-12 29 Aug 16:15:44 16:20:02 36° 246° (WSW) 16:24:15 437.025 FM, 437.400 FM
Gurwin Techsat 1B 29 Aug 16:20:59 16:25:23 26° 265° (W) 16:29:48 435.225 FM
Uosat F 29 Aug 16:29:56 16:34:49 56° 72° (ENE) 16:39:43 435.120 FM
PCSat 29 Aug 16:36:47 16:40:23 18° 105° (ESE) 16:44:00 145.825 MHz
ISS 29 Aug 16:52:21 16:54:44 18° 23° (NNE) 16:57:06 145.800 FM
TMSAT-1 29 Aug 17:16:58 17:18:17 11° 271° (W) 17:19:36 436.925 FM
JAS-2 29 Aug 17:36:11 17:41:24 29° 68° (ENE) 17:46:09 435.800 - 435.900 CW/SSB, 435.910 FM
AO-7 29 Aug 17:38:57 17:46:48 45° 260° (W) 17:54:41 29.400 - 29.500 MHz
RS-15 29 Aug 17:47:34 17:58:44 84° 59° (ENE) 18:10:21 29.354 - 29.394 USB, Beacon 29.352 USB
OPAL 29 Aug 17:48:03 17:53:17 69° 104° (ESE) 17:58:27 ?
Sapphire 29 Aug 17:48:15 17:53:37 76° 116° (ESE) 17:59:03 437.095 MHz 1200 baud AX-25 AFSK
Uosat F 29 Aug 18:11:02 18:13:56 15° 268° (W) 18:16:51 435.120 FM
PCSat 29 Aug 18:18:00 18:23:18 57° 301° (WNW) 18:28:39 145.825 MHz
ISS 29 Aug 18:28:28 18:31:48 77° 220° (SW) 18:35:07 145.800 FM
Hamsat 29 Aug 18:29:08 18:33:26 86° 77° (ENE) 18:37:49 145.90 MHz
SO-67 29 Aug 18:42:17 18:43:52 13° 68° (ENE) 18:45:27 435.3500 MHz FM
JAS-2 29 Aug 19:20:30 19:26:22 38° 261° (W) 19:31:39 435.800 - 435.900 CW/SSB, 435.910 FM
OPAL 29 Aug 19:28:35 19:31:33 16° 300° (WNW) 19:34:32 ?
STRAND 1 29 Aug 19:30:07 19:34:40 32° 97° (E) 19:39:11 ?
Sapphire 29 Aug 19:34:09 19:37:39 17° 314° (NW) 19:41:11 437.095 MHz 1200 baud AX-25 AFSK
RS-15 29 Aug 20:01:39 20:09:48 24° 258° (WSW) 20:18:13 29.354 - 29.394 USB, Beacon 29.352 USB
SO-67 29 Aug 20:13:26 20:16:35 33° 263° (W) 20:19:46 435.3500 MHz FM
HO-68 29 Aug 20:39:09 20:45:38 39° 65° (ENE) 20:52:08 435.675 MHz FM
STRAND 1 29 Aug 21:09:25 21:13:44 28° 293° (WNW) 21:18:03 ?
UKube-1 29 Aug 21:46:18 21:50:36 64° 74° (ENE) 21:54:55 145.840 MHz, 145.915 MHz
Oscar 11 29 Aug 21:53:45 21:57:52 45° 73° (ENE) 22:02:02 145.825 FM, Beacon 2401.500 USB
FUNcube-1 29 Aug 22:16:58 22:20:36 30° 70° (ENE) 22:24:17 145.950 - 145.970 MHz USB
HO-68 29 Aug 22:26:44 22:33:16 38° 262° (W) 22:39:51 435.675 MHz FM
Saudisat 1A 29 Aug 22:44:57 22:48:43 28° 113° (ESE) 22:52:30 436.775 MHz
MaSat-1 29 Aug 23:03:14 23:07:19 30° 56° (NE) 23:10:55 437.345 MHz
UKube-1 29 Aug 23:26:51 23:27:12 10° 269° (W) 23:27:32 145.840 MHz, 145.915 MHz
KITSAT 1 29 Aug 23:31:33 23:38:57 41° 109° (ESE) 23:46:22 435.175 FM
Oscar 11 29 Aug 23:31:54 23:34:17 15° 268° (W) 23:36:41 145.825 FM, Beacon 2401.500 USB
FUNcube-1 29 Aug 23:53:55 23:57:01 20° 266° (W) 00:00:12 145.950 - 145.970 MHz USB
Saudisat 1A 30 Aug 00:24:22 00:28:13 29° 310° (NW) 00:32:06 436.775 MHz
MaSat-1 30 Aug 00:40:39 00:44:06 23° 257° (WSW) 00:47:11 437.345 MHz
PCSat 30 Aug 01:25:25 01:28:20 14° 43° (NE) 01:31:14 145.825 MHz
KITSAT 1 30 Aug 01:26:34 01:34:14 45° 308° (NW) 01:41:57 435.175 FM
Oscar 19 30 Aug 01:37:56 01:40:18 13° 90° (E) 01:42:38 437.125 CW, 437.150 USB
ITAMSAT 1 30 Aug 02:09:32 02:10:22 10° 89° (E) 02:11:12 435.822 SSB
Oscar 16 30 Aug 02:10:52 02:15:24 30° 96° (E) 02:19:54 437.025 USB, Beacon 2401.1428
AO-Echo 30 Aug 02:13:05 02:14:47 12° 91° (E) 02:16:30 ?
Uribyol 2 30 Aug 02:17:56 02:20:46 15° 91° (E) 02:23:35 436.500 FM
AO-27 30 Aug 02:35:38 02:39:32 21° 94° (E) 02:43:26 436.795 MHz FM
Sapphire 30 Aug 02:37:38 02:42:51 46° 57° (ENE) 02:48:02 437.095 MHz 1200 baud AX-25 AFSK
Gurwin Techsat 1B 30 Aug 02:59:11 03:02:21 16° 91° (E) 03:05:29 435.225 FM
PCSat 30 Aug 03:07:06 03:12:33 87° 62° (ENE) 03:17:58 145.825 MHz
Oscar 19 30 Aug 03:14:55 03:20:06 69° 286° (WNW) 03:25:14 437.125 CW, 437.150 USB
OPAL 30 Aug 03:26:24 03:28:41 13° 58° (ENE) 03:30:58 ?
JAS-1B 30 Aug 03:26:55 03:33:32 56° 99° (E) 03:39:16 435.800 - 435.900 CW/SSB
KITSAT 1 30 Aug 03:28:30 03:32:03 13° 333° (NNW) 03:35:37 435.175 FM
ITAMSAT 1 30 Aug 03:45:14 03:50:27 83° 285° (WNW) 03:55:38 435.822 SSB
AO-Echo 30 Aug 03:49:20 03:53:59 62° 286° (WNW) 03:58:37 ?
TMSAT-1 30 Aug 03:49:58 03:54:50 36° 97° (E) 03:59:39 436.925 FM
Oscar 16 30 Aug 03:50:09 03:54:41 31° 292° (WNW) 03:59:13 437.025 USB, Beacon 2401.1428
AO-7 30 Aug 03:53:37 03:55:27 11° 88° (E) 03:57:17 29.400 - 29.500 MHz
Uribyol 2 30 Aug 03:55:30 04:00:38 62° 287° (WNW) 04:05:45 436.500 FM
AO-27 30 Aug 04:14:19 04:19:12 43° 290° (WNW) 04:24:05 436.795 MHz FM
SO-50 30 Aug 04:21:20 04:25:45 67° 119° (ESE) 04:30:17 436.795 FM
Sapphire 30 Aug 04:21:45 04:25:57 23° 253° (WSW) 04:30:08 437.095 MHz 1200 baud AX-25 AFSK
Oscar 10/S400 30 Aug 04:34:13 05:48:26 31° 244° (WSW) 09:26:01 145.825 - 145.975 CW/USB, Beacon 145.810 USB
Gurwin Techsat 1B 30 Aug 04:37:27 04:42:41 59° 287° (WNW) 04:47:52 435.225 FM
Uosat F 30 Aug 04:39:57 04:43:27 19° 94° (E) 04:46:55 435.120 FM
PCSat 30 Aug 04:53:44 04:55:09 11° 258° (WSW) 04:56:33 145.825 MHz
OPAL 30 Aug 05:01:49 05:06:51 78° 255° (WSW) 05:12:00 ?
JAS-1B 30 Aug 05:18:34 05:23:31 22° 302° (WNW) 05:28:00 435.800 - 435.900 CW/SSB
TMSAT-1 30 Aug 05:30:11 05:34:34 27° 293° (WNW) 05:38:57 436.925 FM
AO-7 30 Aug 05:41:16 05:49:34 70° 105° (ESE) 05:57:47 29.400 - 29.500 MHz
SO-50 30 Aug 06:04:00 06:06:48 16° 317° (NW) 06:09:38 436.795 FM
RS-15 30 Aug 06:09:26 06:09:51 10° 95° (E) 06:10:15 29.354 - 29.394 USB, Beacon 29.352 USB
Hamsat 30 Aug 06:17:23 06:20:16 17° 93° (E) 06:23:07 145.90 MHz
Uosat F 30 Aug 06:17:40 06:22:26 46° 289° (WNW) 06:27:11 435.120 FM
UOSAT-12 30 Aug 06:25:00 06:29:36 88° 301° (WNW) 06:34:19 437.025 FM, 437.400 FM
JAS-2 30 Aug 06:30:23 06:34:42 25° 96° (E) 06:39:16 435.800 - 435.900 CW/SSB, 435.910 FM
STRAND 1 30 Aug 06:44:48 06:49:33 41° 70° (ENE) 06:54:18 ?
Saudisat 1A 30 Aug 07:12:57 07:16:06 19° 46° (NE) 07:19:14 436.775 MHz
KITSAT 1 30 Aug 07:26:16 07:31:48 19° 36° (NE) 07:37:18 435.175 FM
AO-7 30 Aug 07:35:09 07:41:38 27° 304° (WNW) 07:48:07 29.400 - 29.500 MHz
SO-67 30 Aug 07:39:01 07:41:20 17° 94° (E) 07:43:38 435.3500 MHz FM
Hamsat 30 Aug 07:52:19 07:56:22 38° 288° (WNW) 08:00:21 145.90 MHz
UOSAT-12 30 Aug 08:08:14 08:10:28 13° 320° (NW) 08:12:43 437.025 FM, 437.400 FM
RS-15 30 Aug 08:08:58 08:19:51 63° 114° (ESE) 08:30:31 29.354 - 29.394 USB, Beacon 29.352 USB
JAS-2 30 Aug 08:15:06 08:19:53 37° 290° (WNW) 08:24:58 435.800 - 435.900 CW/SSB, 435.910 FM
STRAND 1 30 Aug 08:24:59 08:28:52 22° 266° (W) 08:32:45 ?
Saudisat 1A 30 Aug 08:51:41 08:55:57 50° 243° (WSW) 09:00:12 436.775 MHz
SO-67 30 Aug 09:11:32 09:14:21 23° 289° (WNW) 09:17:09 435.3500 MHz FM
KITSAT 1 30 Aug 09:20:35 09:28:41 73° 59° (ENE) 09:36:44 435.175 FM
UKube-1 30 Aug 09:38:04 09:39:41 12° 92° (E) 09:41:17 145.840 MHz, 145.915 MHz
HO-68 30 Aug 09:55:07 10:01:55 45° 100° (E) 10:08:42 435.675 MHz FM
RS-15 30 Aug 10:22:38 10:32:44 40° 317° (NW) 10:42:49 29.354 - 29.394 USB, Beacon 29.352 USB
ISS 30 Aug 11:09:54 11:13:12 73° 139° (SE) 11:16:31 145.800 FM
UKube-1 30 Aug 11:11:57 11:16:12 55° 287° (WNW) 11:20:26 145.840 MHz, 145.915 MHz
KITSAT 1 30 Aug 11:17:23 11:23:16 23° 257° (WSW) 11:29:08 435.175 FM
Oscar 11 30 Aug 11:18:30 11:22:52 72° 284° (WNW) 11:27:12 145.825 FM, Beacon 2401.500 USB
FUNcube-1 30 Aug 11:42:38 11:47:11 81° 102° (ESE) 11:51:47 145.950 - 145.970 MHz USB
HO-68 30 Aug 11:43:09 11:49:24 34° 297° (WNW) 11:55:39 435.675 MHz FM
JAS-1B 30 Aug 12:24:43 12:27:09 11° 50° (NE) 12:29:31 435.800 - 435.900 CW/SSB
